| time (UTC) | temp F | wind direction | speed knots | gust knots | rain 1hr in | rain 24hr in | rain mn in | humidity % | barometer mb |
| 20260831213015 | 73 | 0.0 | 0.0 | 0.00 | 0.02 | 0.01 | 73 | 1018.5 | |
| 20260831210016 | 73 | 0.0 | 0.0 | 0.00 | 0.02 | 0.01 | 72 | 1018.6 | |
| 20260831203015 | 74 | 0.0 | 0.0 | 0.01 | 0.02 | 0.01 | 70 | 1018.6 | |
| 20260831200015 | 74 | 0.0 | 0.9 | 0.01 | 0.02 | 0.01 | 70 | 1018.6 | |
| 20260831193035 | 76 | 0.0 | 1.7 | 0.00 | 0.01 | 0.00 | 62 | 1018.9 | |
| 20260831190017 | 76 | 0.0 | 2.6 | 0.00 | 0.01 | 0.00 | 60 | 1019.3 | |
| 20260831183019 | 77 | 225 | 0.9 | 3.5 | 0.00 | 0.01 | 0.00 | 61 | 1019.6 |
| 20260831180017 | 76 | 0.0 | 2.6 | 0.00 | 0.01 | 0.00 | 60 | 1019.7 | |
| 20260831173017 | 76 | 0.0 | 2.6 | 0.00 | 0.01 | 0.00 | 60 | 1020.1 | |
| 20260831170017 | 77 | 0.0 | 2.6 | 0.00 | 0.01 | 0.00 | 58 | 1020.2 | |
| 20260831163021 | 77 | 0.0 | 1.7 | 0.00 | 0.01 | 0.00 | 57 | 1020.4 | |
| 20260831160057 | 76 | 0.0 | 2.6 | 0.00 | 0.01 | 0.00 | 62 | 1020.6 | |
| 20260831153022 | 75 | 0.0 | 2.6 | 0.00 | 0.01 | 0.00 | 63 | 1020.8 | |
| 20260831150022 | 74 | 0.0 | 1.7 | 0.00 | 0.01 | 0.00 | 64 | 1020.7 | |
| 20260831143036 | 72 | 338 | 0.9 | 2.6 | 0.00 | 0.01 | 0.00 | 67 | 1020.9 |
| 20260831140037 | 72 | 68 | 0.9 | 2.6 | 0.00 | 0.01 | 0.00 | 68 | 1020.7 |
| 20260831133017 | 71 | 23 | 0.9 | 3.5 | 0.00 | 0.01 | 0.00 | 68 | 1020.7 |
| 20260831130017 | 70 | 0 | 0.9 | 1.7 | 0.00 | 0.01 | 0.00 | 69 | 1020.9 |
| 20260831123017 | 70 | 0.0 | 1.7 | 0.00 | 0.01 | 0.00 | 70 | 1020.7 | |
| 20260831120016 | 66 | 0.0 | 0.9 | 0.00 | 0.01 | 0.00 | 77 | 1020.6 | |
| 20260831113041 | 65 | 0.0 | 0.9 | 0.00 | 0.01 | 0.00 | 82 | 1020.5 | |
| 20260831110016 | 63 | 0.0 | 0.0 | 0.00 | 0.01 | 0.00 | 82 | 1020.2 | |
| 20260831103017 | 63 | 0.0 | 0.0 | 0.00 | 0.01 | 0.00 | 81 | 1019.9 | |
| 20260831100016 | 63 | 0.0 | 0.0 | 0.00 | 0.01 | 0.00 | 81 | 1019.7 | |
| 20260831093016 | 63 | 0.0 | 0.0 | 0.00 | 0.01 | 0.00 | 80 | 1019.7 | |
| 20260831090036 | 63 | 0.0 | 0.0 | 0.00 | 0.01 | 0.00 | 79 | 1019.7 | |
| 20260831083017 | 63 | 0.0 | 0.9 | 0.00 | 0.01 | 0.00 | 76 | 1019.4 | |
| 20260831080017 | 63 | 0.0 | 0.0 | 0.00 | 0.01 | 0.00 | 73 | 1019.4 | |
| 20260831073016 | 64 | 0.0 | 0.0 | 0.00 | 0.01 | 0.00 | 71 | 1019.2 | |
| 20260831070056 | 65 | 0.0 | 0.9 | 0.00 | 0.01 | 0.00 | 69 | 1019.3 | |
| 20260831063015 | 66 | 0.0 | 0.9 | 0.00 | 0.01 | 0.00 | 69 | 1019.2 | |
| 20260831060016 | 67 | 0.0 | 0.9 | 0.00 | 0.01 | 0.00 | 68 | 1019.0 | |
| 20260831053015 | 68 | 23 | 0.9 | 1.7 | 0.00 | 0.01 | 0.00 | 66 | 1019.1 |
| 20260831050015 | 68 | 0.0 | 1.7 | 0.00 | 0.01 | 0.00 | 66 | 1018.9 | |
| 20260831043015 | 69 | 0.0 | 1.7 | 0.00 | 0.01 | 0.00 | 67 | 1019.1 | |
| 20260831040015 | 69 | 0.0 | 0.9 | 0.00 | 0.01 | 0.01 | 65 | 1019.0 | |
| 20260831033037 | 70 | 23 | 0.9 | 4.3 | 0.00 | 0.01 | 0.01 | 64 | 1018.7 |
| 20260831030016 | 70 | 0.0 | 1.7 | 0.01 | 0.01 | 0.01 | 64 | 1019.1 | |
| 20260831023017 | 71 | 0.0 | 0.9 | 0.01 | 0.01 | 0.01 | 72 | 1019.2 | |
| 20260831020021 | 72 | 0.0 | 0.9 | 0.00 | 0.00 | 0.00 | 70 | 1019.1 | |
| 20260831013017 | 72 | 0.0 | 0.0 | 0.00 | 0.00 | 0.00 | 68 | 1018.7 | |
| 20260831010015 | 73 | 0.0 | 0.0 | 0.00 | 0.00 | 0.00 | 67 | 1018.4 | |
| 20260831003015 | 73 | 0.0 | 1.7 | 0.00 | 0.00 | 0.00 | 66 | 1017.9 | |
| 20260831000036 | 73 | 0.0 | 0.0 | 0.00 | 0.00 | 0.00 | 68 | 1017.5 | |
| 20260830233015 | 73 | 0.0 | 1.7 | 0.00 | 0.00 | 0.00 | 68 | 1017.2 | |
| 20260830230035 | 73 | 0.0 | 0.9 | 0.00 | 0.00 | 0.00 | 68 | 1017.3 | |
| 20260830223015 | 75 | 0.0 | 1.7 | 0.00 | 0.00 | 0.00 | 66 | 1017.4 | |
| 20260830220015 | 75 | 0.0 | 3.5 | 0.00 | 0.00 | 0.00 | 65 | 1017.3 |